Location: Arborea
(39.7744°N, 8.5819°E)
Time: 02:42:40
(UTC+00:00)

USA 229 - Pass Details

Date: 30 May 2022
Orbit: 938 x 1274 km, 63.4° (Epoch: 24 May)

Event Time Altitude Azimuth Distance (km) Brightness Sun altitude
Rises 21:19:14 0° 330° (NNW) 3,937 8.2 -21.9°
Reaches altitude 10° 21:22:27 10° 344° (NNW) 3,034 7.1 -22.2°
Maximum altitude 21:28:18 25° 37° (NE) 2,202 5.5 -22.8°
Drops below altitude 10° 21:34:26 10° 90° (E) 3,201 5.9 -23.3°
Enters shadow 21:34:34 10° 91° (E) 3,235 5.9 -23.3°
